Location: Theydon Bois
(51.6750°N, 0.1050°E)
Time: 21:10:53
(UTC+00:00)

Envisat - Visible Passes

Search period start: 10 December 2019 00:00
Search period end: 20 December 2019 00:00
Orbit: 764 x 766 km, 98.1° (Epoch: 10 December)

Date Brightness Start Highest point End Pass type
(mag) Time Alt. Az. Time Alt. Az. Time Alt. Az.
10 Dec 4.6 06:19:52 10° NNE 06:24:38 39° E 06:29:22 10° SSE visible
10 Dec 2.9 17:39:38 10° SSE 17:44:44 85° ENE 17:49:51 10° NNW visible
10 Dec 5.8 19:21:18 10° SW 19:24:26 16° W 19:27:36 10° NW visible
11 Dec 5.7 05:43:46 10° NE 05:47:31 20° E 05:51:15 10° SE visible
11 Dec 3.3 17:03:14 10° SE 17:08:04 45° ENE 17:12:53 10° N visible
11 Dec 4.8 18:42:45 10° SSW 18:47:14 31° W 18:51:46 10° NNW visible
12 Dec 3.6 06:45:11 10° NNE 06:50:16 63° ESE 06:55:17 10° S visible
12 Dec 4.0 16:27:30 10° ESE 16:31:35 25° ENE 16:35:40 10° N visible
12 Dec 3.5 18:05:14 10° S 18:10:15 61° W 18:15:19 10° NNW visible
13 Dec 4.9 06:08:43 10° NNE 06:13:16 32° E 06:17:48 10° SSE visible
13 Dec 2.9 17:28:25 10° SSE 17:33:27 71° ENE 17:38:32 10° N visible
13 Dec 5.5 19:09:20 10° SW 19:13:01 20° W 19:16:42 10° NW visible
14 Dec 5.9 05:32:51 10° NE 05:36:05 17° E 05:39:18 10° SE visible
14 Dec 3.0 07:10:40 10° NNE 07:15:47 83° WNW 07:20:52 10° SSW visible
14 Dec 3.5 16:52:12 10° SE 16:56:51 37° ENE 17:01:30 10° N visible
14 Dec 4.4 18:31:10 10° SSW 18:35:53 38° W 18:40:38 10° NNW visible
15 Dec 4.0 06:33:57 10° NNE 06:38:56 51° E 06:43:52 10° S visible
15 Dec 3.2 17:53:52 10° S 17:58:57 74° WSW 18:04:03 10° NNW visible
15 Dec 6.1 19:36:54 10° WSW 19:38:53 12° W 19:40:52 10° WNW visible
16 Dec 5.3 05:57:37 10° NE 06:01:53 26° E 06:06:08 10° SSE visible
16 Dec 3.0 17:17:14 10° SSE 17:22:12 58° ENE 17:27:12 10° N visible
16 Dec 5.2 18:57:32 10° SW 19:01:36 24° W 19:05:42 10° NW visible
17 Dec 6.1 05:22:08 10° NE 05:24:39 14° E 05:27:08 10° ESE visible
17 Dec 3.2 06:59:23 10° NNE 07:04:30 82° ESE 07:09:35 10° SSW visible
17 Dec 3.7 16:41:13 10° ESE 16:45:39 31° ENE 16:50:06 10° N visible
17 Dec 4.0 18:19:39 10° S 18:24:31 46° W 18:29:26 10° NNW visible
18 Dec 4.4 06:22:45 10° NNE 06:27:35 42° E 06:32:24 10° SSE visible
18 Dec 3.0 17:42:34 10° SSE 17:47:39 89° W 17:52:46 10° NNW visible
18 Dec 5.9 19:24:33 10° WSW 19:27:26 15° W 19:30:19 10° NW visible
19 Dec 5.6 05:46:34 10° NE 05:50:30 22° E 05:54:23 10° SE visible
19 Dec 3.2 17:06:06 10° SE 17:10:58 48° ENE 17:15:51 10° N visible
19 Dec 4.9 18:45:49 10° SSW 18:50:12 29° W 18:54:38 10° NNW visible
